Year,Month,Day,Hour,Minute,Value (Times are PST for temperature in C)
2004,11,22,08,06,8.10
2004,11,22,08,07,8.10
2004,11,22,08,08,8.10
2004,11,22,08,09,8.10
2004,11,22,08,10,8.20
2004,11,22,08,11,8.20
2004,11,22,08,12,8.20
2004,11,22,08,13,8.20
2004,11,22,08,14,8.20
2004,11,22,08,15,8.20
2004,11,22,08,16,8.20
2004,11,22,08,17,8.20
2004,11,22,08,18,8.20
2004,11,22,08,19,8.20
2004,11,22,08,20,8.20
2004,11,22,08,21,8.20
2004,11,22,08,22,8.20
2004,11,22,08,23,8.30
2004,11,22,08,24,8.30
2004,11,22,08,25,8.30
2004,11,22,08,26,8.30
2004,11,22,08,27,8.30
2004,11,22,08,28,8.40
2004,11,22,08,29,8.40
2004,11,22,08,30,8.40
2004,11,22,08,31,8.40
2004,11,22,08,32,8.40
2004,11,22,08,33,8.30
2004,11,22,08,34,8.30
2004,11,22,08,35,8.30
2004,11,22,08,36,8.30
2004,11,22,08,37,8.30
2004,11,22,08,38,8.30
2004,11,22,08,39,8.30
2004,11,22,08,40,8.20
2004,11,22,08,41,8.20
2004,11,22,08,42,8.20
2004,11,22,08,43,8.20
2004,11,22,08,44,8.20
2004,11,22,08,45,8.20
2004,11,22,08,46,8.20
2004,11,22,08,47,8.20
2004,11,22,08,48,8.20
2004,11,22,08,49,8.20
2004,11,22,08,50,8.20
2004,11,22,08,51,8.20
2004,11,22,08,52,8.20
2004,11,22,08,53,8.10
2004,11,22,08,54,8.10
2004,11,22,08,55,8.10
2004,11,22,08,56,8.10
2004,11,22,08,57,8.10
2004,11,22,08,58,8.10
2004,11,22,08,59,8.10
2004,11,22,09,00,8.10
2004,11,22,09,01,8.10
2004,11,22,09,02,8.10
2004,11,22,09,03,8.10
2004,11,22,09,04,8.10
2004,11,22,09,05,8.10
2004,11,22,09,06,8.10
2004,11,22,09,07,8.10
2004,11,22,09,08,8.00
2004,11,22,09,09,8.00
2004,11,22,09,10,8.00
2004,11,22,09,11,8.10
2004,11,22,09,12,8.10
2004,11,22,09,13,8.10
2004,11,22,09,14,8.10
2004,11,22,09,15,8.10
2004,11,22,09,16,8.10
2004,11,22,09,17,8.10
2004,11,22,09,18,8.10
2004,11,22,09,19,8.10
2004,11,22,09,20,8.10
2004,11,22,09,21,8.10
2004,11,22,09,22,8.10
2004,11,22,09,23,8.10
2004,11,22,09,24,8.10
2004,11,22,09,25,8.10
2004,11,22,09,26,8.10
2004,11,22,09,27,8.10
2004,11,22,09,28,8.10
2004,11,22,09,29,8.10
2004,11,22,09,30,8.10
2004,11,22,09,31,8.10
2004,11,22,09,32,8.10
2004,11,22,09,33,8.10
2004,11,22,09,34,8.10
2004,11,22,09,35,8.10
2004,11,22,09,36,8.10
2004,11,22,09,37,8.10
2004,11,22,09,38,8.10
2004,11,22,09,39,8.10
2004,11,22,09,40,8.10
2004,11,22,09,41,8.10
2004,11,22,09,42,8.00
2004,11,22,09,43,8.00
2004,11,22,09,44,8.00
2004,11,22,09,45,8.00
2004,11,22,09,46,8.00
2004,11,22,09,47,8.00
2004,11,22,09,48,8.00
2004,11,22,09,49,8.00
2004,11,22,09,50,8.00
2004,11,22,09,51,8.00
2004,11,22,09,52,8.00
2004,11,22,09,53,8.00
2004,11,22,09,54,8.00
2004,11,22,09,55,8.00
2004,11,22,09,56,8.00
2004,11,22,09,57,8.00
2004,11,22,09,58,8.00
2004,11,22,09,59,8.00
2004,11,22,10,00,8.00
2004,11,22,10,01,8.10
2004,11,22,10,02,8.00
2004,11,22,10,03,8.00
2004,11,22,10,04,8.00
2004,11,22,10,05,8.00
2004,11,22,10,06,8.00
2004,11,22,10,07,8.00
2004,11,22,10,08,8.10
2004,11,22,10,09,8.10
2004,11,22,10,10,8.10
2004,11,22,10,11,8.10
2004,11,22,10,12,8.10
2004,11,22,10,13,8.10
2004,11,22,10,14,8.00
2004,11,22,10,15,8.00
2004,11,22,10,16,8.10
2004,11,22,10,17,8.10
2004,11,22,10,18,8.10
2004,11,22,10,19,8.10
2004,11,22,10,20,8.10
2004,11,22,10,21,8.10
2004,11,22,10,22,8.20
2004,11,22,10,23,8.10
2004,11,22,10,24,8.10
2004,11,22,10,25,8.20
2004,11,22,10,26,8.20
2004,11,22,10,27,8.20
2004,11,22,10,28,8.20
2004,11,22,10,29,8.20
2004,11,22,10,30,8.20
2004,11,22,10,31,8.20
2004,11,22,10,32,8.20
2004,11,22,10,33,8.10
2004,11,22,10,34,8.10
2004,11,22,10,35,8.10
2004,11,22,10,36,8.10
2004,11,22,10,37,8.10
2004,11,22,10,38,8.10
2004,11,22,10,39,8.10
2004,11,22,10,40,8.10
2004,11,22,10,41,8.10
2004,11,22,10,42,8.10
2004,11,22,10,43,8.10
2004,11,22,10,44,8.10
2004,11,22,10,45,8.10
2004,11,22,10,46,8.10
2004,11,22,10,47,8.10
2004,11,22,10,48,8.10
2004,11,22,10,49,8.10
2004,11,22,10,50,8.10
2004,11,22,10,51,8.10
2004,11,22,10,52,8.10
2004,11,22,10,53,8.10
2004,11,22,10,54,8.10
2004,11,22,10,55,8.10
2004,11,22,10,56,8.10
2004,11,22,10,57,8.10
2004,11,22,10,58,8.20
2004,11,22,10,59,8.20
2004,11,22,11,00,8.20
2004,11,22,11,01,8.20
2004,11,22,11,02,8.20
2004,11,22,11,03,8.20
2004,11,22,11,04,8.20
2004,11,22,11,05,8.20
2004,11,22,11,06,8.20
2004,11,22,11,07,8.20
2004,11,22,11,08,8.20
2004,11,22,11,09,8.20
2004,11,22,11,10,8.20
2004,11,22,11,11,8.20
2004,11,22,11,12,8.20
2004,11,22,11,13,8.20
2004,11,22,11,14,8.20
2004,11,22,11,15,8.30
2004,11,22,11,16,8.30
2004,11,22,11,17,8.20
2004,11,22,11,18,8.20
2004,11,22,11,19,8.30
2004,11,22,11,20,8.30
2004,11,22,11,21,8.30
2004,11,22,11,22,8.30
2004,11,22,11,23,8.20
2004,11,22,11,24,8.20
2004,11,22,11,25,8.20
2004,11,22,11,26,8.20
2004,11,22,11,27,8.20
2004,11,22,11,28,8.20
2004,11,22,11,29,8.20
2004,11,22,11,30,8.20
2004,11,22,11,31,8.20
2004,11,22,11,32,8.20
2004,11,22,11,33,8.20
2004,11,22,11,34,8.20
2004,11,22,11,35,8.20
2004,11,22,11,36,8.20
2004,11,22,11,37,8.10
2004,11,22,11,38,8.10
2004,11,22,11,39,8.20
2004,11,22,11,40,8.20
2004,11,22,11,41,8.20
2004,11,22,11,42,8.20
2004,11,22,11,43,8.20
2004,11,22,11,44,8.20
2004,11,22,11,45,8.20
2004,11,22,11,46,8.20
2004,11,22,11,47,8.20
2004,11,22,11,48,8.20
2004,11,22,11,49,8.20
2004,11,22,11,50,8.20
2004,11,22,11,51,8.20
2004,11,22,11,52,8.20
2004,11,22,11,53,8.20
2004,11,22,11,54,8.20
2004,11,22,11,55,8.20
2004,11,22,11,56,8.20
2004,11,22,11,57,8.20
2004,11,22,11,58,8.20
2004,11,22,11,59,8.20
2004,11,22,12,00,8.20
2004,11,22,12,01,8.20
2004,11,22,12,02,8.20
2004,11,22,12,03,8.20
2004,11,22,12,04,8.20
2004,11,22,12,05,8.20
2004,11,22,12,06,8.20
2004,11,22,12,07,8.20
2004,11,22,12,08,8.20
2004,11,22,12,09,8.20
2004,11,22,12,10,8.20
2004,11,22,12,11,8.20
2004,11,22,12,12,8.20
2004,11,22,12,13,8.20
2004,11,22,12,14,8.20
2004,11,22,12,15,8.30
2004,11,22,12,16,8.30
2004,11,22,12,17,8.30
2004,11,22,12,18,8.40
2004,11,22,12,19,8.40
2004,11,22,12,20,8.40
2004,11,22,12,21,8.40
2004,11,22,12,22,8.30
2004,11,22,12,23,8.30
2004,11,22,12,24,8.30
2004,11,22,12,25,8.30
2004,11,22,12,26,8.30
2004,11,22,12,27,8.30
2004,11,22,12,28,8.30
2004,11,22,12,29,8.30
2004,11,22,12,30,8.30
2004,11,22,12,31,8.20
2004,11,22,12,32,8.20
2004,11,22,12,33,8.20
2004,11,22,12,34,8.20
2004,11,22,12,35,8.20
2004,11,22,12,36,8.20
2004,11,22,12,37,8.20
2004,11,22,12,38,8.30
2004,11,22,12,39,8.30
2004,11,22,12,40,8.40
2004,11,22,12,41,8.30
2004,11,22,12,42,8.30
2004,11,22,12,43,8.30
2004,11,22,12,44,8.40
2004,11,22,12,45,8.30
2004,11,22,12,46,8.30
2004,11,22,12,47,8.30
2004,11,22,12,48,8.30
2004,11,22,12,49,8.30
2004,11,22,12,50,8.40
2004,11,22,12,51,8.40
2004,11,22,12,52,8.40
2004,11,22,12,53,8.40
2004,11,22,12,54,8.40
2004,11,22,12,55,8.40
2004,11,22,12,56,8.40
2004,11,22,12,57,8.40
2004,11,22,12,58,8.40
2004,11,22,12,59,8.40
2004,11,22,13,00,8.40
2004,11,22,13,01,8.40
2004,11,22,13,02,8.30
2004,11,22,13,03,8.40
2004,11,22,13,04,8.40
2004,11,22,13,05,8.40
2004,11,22,13,06,8.40
2004,11,22,13,07,8.40
2004,11,22,13,08,8.40
2004,11,22,13,09,8.40
2004,11,22,13,10,8.40
2004,11,22,13,11,8.40
2004,11,22,13,12,8.40
2004,11,22,13,13,8.40
2004,11,22,13,14,8.40
2004,11,22,13,15,8.40
2004,11,22,13,16,8.40
2004,11,22,13,17,8.40
2004,11,22,13,18,8.40
2004,11,22,13,19,8.40
2004,11,22,13,20,8.40
2004,11,22,13,21,8.40
2004,11,22,13,22,8.40
2004,11,22,13,23,8.40
2004,11,22,13,24,8.50
2004,11,22,13,25,8.50
2004,11,22,13,26,8.40
2004,11,22,13,27,8.50
2004,11,22,13,28,8.40
2004,11,22,13,29,8.40
2004,11,22,13,30,8.40
2004,11,22,13,31,8.40
2004,11,22,13,32,8.30
2004,11,22,13,33,8.30
2004,11,22,13,34,8.30
2004,11,22,13,35,8.30
2004,11,22,13,36,8.30
2004,11,22,13,37,8.30
2004,11,22,13,38,8.30
2004,11,22,13,39,8.30
2004,11,22,13,40,8.30
2004,11,22,13,41,8.30
2004,11,22,13,42,8.20
2004,11,22,13,43,8.20
2004,11,22,13,44,8.20
2004,11,22,13,45,8.20
2004,11,22,13,46,8.20
2004,11,22,13,47,8.20
2004,11,22,13,48,8.20
2004,11,22,13,49,8.30
2004,11,22,13,50,8.30
2004,11,22,13,51,8.30
2004,11,22,13,52,8.30
2004,11,22,13,53,8.30
2004,11,22,13,54,8.20
2004,11,22,13,55,8.20
2004,11,22,13,56,8.20
2004,11,22,13,57,8.20
2004,11,22,13,58,8.20
2004,11,22,13,59,8.20
2004,11,22,14,00,8.20
2004,11,22,14,01,8.20
2004,11,22,14,02,8.30
2004,11,22,14,03,8.20
2004,11,22,14,04,8.20
2004,11,22,14,05,8.20
2004,11,22,14,06,8.20
2004,11,22,14,07,8.20
2004,11,22,14,08,8.20
2004,11,22,14,09,8.20
2004,11,22,14,10,8.20
2004,11,22,14,11,8.20
2004,11,22,14,12,8.20
2004,11,22,14,13,8.10
2004,11,22,14,14,8.20
2004,11,22,14,15,8.20
2004,11,22,14,16,8.20
2004,11,22,14,17,8.20
2004,11,22,14,18,8.20
2004,11,22,14,19,8.20
2004,11,22,14,20,8.20
2004,11,22,14,21,8.20
2004,11,22,14,22,8.20
2004,11,22,14,23,8.20
2004,11,22,14,24,8.20
2004,11,22,14,25,8.20
2004,11,22,14,26,8.20
2004,11,22,14,27,8.20
2004,11,22,14,28,8.20
2004,11,22,14,29,8.20
2004,11,22,14,30,8.20
2004,11,22,14,31,8.20
2004,11,22,14,32,8.20
2004,11,22,14,33,8.20
2004,11,22,14,34,8.20
2004,11,22,14,35,8.20
2004,11,22,14,36,8.20
2004,11,22,14,37,8.20
2004,11,22,14,38,8.20
2004,11,22,14,39,8.20
2004,11,22,14,40,8.20
2004,11,22,14,41,8.20
2004,11,22,14,42,8.20
2004,11,22,14,43,8.20
2004,11,22,14,44,8.20
2004,11,22,14,45,8.20
2004,11,22,14,46,8.20
2004,11,22,14,47,8.20
2004,11,22,14,48,8.20
2004,11,22,14,49,8.20
2004,11,22,14,50,8.20
2004,11,22,14,51,8.20
2004,11,22,14,52,8.20
2004,11,22,14,53,8.30
2004,11,22,14,54,8.30
2004,11,22,14,55,8.30
2004,11,22,14,56,8.30
2004,11,22,14,57,8.30
2004,11,22,14,58,8.20
2004,11,22,14,59,8.20
2004,11,22,15,00,8.20
2004,11,22,15,01,8.20
2004,11,22,15,02,8.20
2004,11,22,15,03,8.20
2004,11,22,15,04,8.20
2004,11,22,15,05,8.20
2004,11,22,15,06,8.20
2004,11,22,15,07,8.30
2004,11,22,15,08,8.30
2004,11,22,15,09,8.30
2004,11,22,15,10,8.30
2004,11,22,15,11,8.30
2004,11,22,15,12,8.30
2004,11,22,15,13,8.30
2004,11,22,15,14,8.30
2004,11,22,15,15,8.30
2004,11,22,15,16,8.30
2004,11,22,15,17,8.20
2004,11,22,15,18,8.20
2004,11,22,15,19,8.30
2004,11,22,15,20,8.30
2004,11,22,15,21,8.30
2004,11,22,15,22,8.20
2004,11,22,15,23,8.20
2004,11,22,15,24,8.30
2004,11,22,15,25,8.30
2004,11,22,15,26,8.30
2004,11,22,15,27,8.30
2004,11,22,15,28,8.30
2004,11,22,15,29,8.30
2004,11,22,15,30,8.30
2004,11,22,15,31,8.30
2004,11,22,15,32,8.30
2004,11,22,15,33,8.30
2004,11,22,15,34,8.30
2004,11,22,15,35,8.30
2004,11,22,15,36,8.40
2004,11,22,15,37,8.40
2004,11,22,15,38,8.40
2004,11,22,15,39,8.40
2004,11,22,15,40,8.40
2004,11,22,15,41,8.40
2004,11,22,15,42,8.40
2004,11,22,15,43,8.30
2004,11,22,15,44,8.30
2004,11,22,15,45,8.30
2004,11,22,15,46,8.30
2004,11,22,15,47,8.30
2004,11,22,15,48,8.30
2004,11,22,15,49,8.20
2004,11,22,15,50,8.30
2004,11,22,15,51,8.30
2004,11,22,15,52,8.20
2004,11,22,15,53,8.20
2004,11,22,15,54,8.20
2004,11,22,15,55,8.20
2004,11,22,15,56,8.20
2004,11,22,15,57,8.20
2004,11,22,15,58,8.20
2004,11,22,15,59,8.20
2004,11,22,16,00,8.20
2004,11,22,16,01,8.20
2004,11,22,16,02,8.30
2004,11,22,16,03,8.30
2004,11,22,16,04,8.30
2004,11,22,16,05,8.30
2004,11,22,16,06,8.40
2004,11,22,16,07,8.40
2004,11,22,16,08,8.40
2004,11,22,16,09,8.40
2004,11,22,16,10,8.40
2004,11,22,16,11,8.40
2004,11,22,16,12,8.40
2004,11,22,16,13,8.40
2004,11,22,16,14,8.50
2004,11,22,16,15,8.50
2004,11,22,16,16,8.50
2004,11,22,16,17,8.50
2004,11,22,16,18,8.50
2004,11,22,16,19,8.60
2004,11,22,16,20,8.60
2004,11,22,16,21,8.60
2004,11,22,16,22,8.50
2004,11,22,16,23,8.50
2004,11,22,16,24,8.50
2004,11,22,16,25,8.50
2004,11,22,16,26,8.40
2004,11,22,16,27,8.40
2004,11,22,16,28,8.40
2004,11,22,16,29,8.40
2004,11,22,16,30,8.40
2004,11,22,16,31,8.40
2004,11,22,16,32,8.40
2004,11,22,16,33,8.40
2004,11,22,16,34,8.30
2004,11,22,16,35,8.30
2004,11,22,16,36,8.30
2004,11,22,16,37,8.30
2004,11,22,16,38,8.30
2004,11,22,16,39,8.30
2004,11,22,16,40,8.30
2004,11,22,16,41,8.30
2004,11,22,16,42,8.30
2004,11,22,16,43,8.30
2004,11,22,16,44,8.30
2004,11,22,16,45,8.30
2004,11,22,16,46,8.30
2004,11,22,16,47,8.30
2004,11,22,16,48,8.30
2004,11,22,16,49,8.30
2004,11,22,16,50,8.40
2004,11,22,16,51,8.40
2004,11,22,16,52,8.40
2004,11,22,16,53,8.40
2004,11,22,16,54,8.40
2004,11,22,16,55,8.40
2004,11,22,16,56,8.40
2004,11,22,16,57,8.40
2004,11,22,16,58,8.40
2004,11,22,16,59,8.40
2004,11,22,17,00,8.40
2004,11,22,17,01,8.40
2004,11,22,17,02,8.40
2004,11,22,17,03,8.40
2004,11,22,17,04,8.40
2004,11,22,17,05,8.40
2004,11,22,17,06,8.40
2004,11,22,17,07,8.40
2004,11,22,17,08,8.40
2004,11,22,17,09,8.40
2004,11,22,17,10,8.40
2004,11,22,17,11,8.30
2004,11,22,17,12,8.30
2004,11,22,17,13,8.30
2004,11,22,17,14,8.40
2004,11,22,17,15,8.40
2004,11,22,17,16,8.40
2004,11,22,17,17,8.40
2004,11,22,17,18,8.40
2004,11,22,17,19,8.40
2004,11,22,17,20,8.40
2004,11,22,17,21,8.40
2004,11,22,17,22,8.40
2004,11,22,17,23,8.30
2004,11,22,17,24,8.40
2004,11,22,17,25,8.40
2004,11,22,17,26,8.40
2004,11,22,17,27,8.40
2004,11,22,17,28,8.40
2004,11,22,17,29,8.30
2004,11,22,17,30,8.30
2004,11,22,17,31,8.30
2004,11,22,17,32,8.30
2004,11,22,17,33,8.30
2004,11,22,17,34,8.30
2004,11,22,17,35,8.30
2004,11,22,17,36,8.30
2004,11,22,17,37,8.30
2004,11,22,17,38,8.40
2004,11,22,17,39,8.40
2004,11,22,17,40,8.40
2004,11,22,17,41,8.40
2004,11,22,17,42,8.40
2004,11,22,17,43,8.40
2004,11,22,17,44,8.40
2004,11,22,17,45,8.40
2004,11,22,17,46,8.40
2004,11,22,17,47,8.30
2004,11,22,17,48,8.40
2004,11,22,17,49,8.40
2004,11,22,17,50,8.40
2004,11,22,17,51,8.40
2004,11,22,17,52,8.40
2004,11,22,17,53,8.40
2004,11,22,17,54,8.40
2004,11,22,17,55,8.40
2004,11,22,17,56,8.40
2004,11,22,17,57,8.40
2004,11,22,17,58,8.40
2004,11,22,17,59,8.40
2004,11,22,18,00,8.50
2004,11,22,18,01,8.50
2004,11,22,18,02,8.40
2004,11,22,18,03,8.40
2004,11,22,18,04,8.50
2004,11,22,18,05,8.40
2004,11,22,18,06,8.50
2004,11,22,18,07,8.50
2004,11,22,18,08,8.50
2004,11,22,18,09,8.40
2004,11,22,18,10,8.40
2004,11,22,18,11,8.40
2004,11,22,18,12,8.40
2004,11,22,18,13,8.40
2004,11,22,18,14,8.40
2004,11,22,18,15,8.40
2004,11,22,18,16,8.40
2004,11,22,18,17,8.50
2004,11,22,18,18,8.50
2004,11,22,18,19,8.50
2004,11,22,18,20,8.50
2004,11,22,18,21,8.50
2004,11,22,18,22,8.50
2004,11,22,18,23,8.50
2004,11,22,18,24,8.60
2004,11,22,18,25,8.60
2004,11,22,18,26,8.70
2004,11,22,18,27,8.70
2004,11,22,18,28,8.60
2004,11,22,18,29,8.60
2004,11,22,18,30,8.60
2004,11,22,18,31,8.60
2004,11,22,18,32,8.60
2004,11,22,18,33,8.50
2004,11,22,18,34,8.50
2004,11,22,18,35,8.50
2004,11,22,18,36,8.50
2004,11,22,18,37,8.50
2004,11,22,18,38,8.50
2004,11,22,18,39,8.50
2004,11,22,18,40,8.40
2004,11,22,18,41,8.40
2004,11,22,18,42,8.40
2004,11,22,18,43,8.40
2004,11,22,18,44,8.40
2004,11,22,18,45,8.40
2004,11,22,18,46,8.40
2004,11,22,18,47,8.40
2004,11,22,18,48,8.40
2004,11,22,18,49,8.40
2004,11,22,18,50,8.30
2004,11,22,18,51,8.30
2004,11,22,18,52,8.30
2004,11,22,18,53,8.40
2004,11,22,18,54,8.40
2004,11,22,18,55,8.40
2004,11,22,18,56,8.40
2004,11,22,18,57,8.40
2004,11,22,18,58,8.30
2004,11,22,18,59,8.40
2004,11,22,19,00,8.40
2004,11,22,19,01,8.30
2004,11,22,19,02,8.20
2004,11,22,19,03,8.20
2004,11,22,19,04,8.20
2004,11,22,19,05,8.20
2004,11,22,19,06,8.20
2004,11,22,19,07,8.20
2004,11,22,19,08,8.20
2004,11,22,19,09,8.10
2004,11,22,19,10,8.10
2004,11,22,19,11,8.10
2004,11,22,19,12,8.10
2004,11,22,19,13,8.00
2004,11,22,19,14,8.00
2004,11,22,19,15,8.00
2004,11,22,19,16,8.00
2004,11,22,19,17,8.00
2004,11,22,19,18,8.00
2004,11,22,19,19,7.90
2004,11,22,19,20,7.90
2004,11,22,19,21,7.90
2004,11,22,19,22,7.90
2004,11,22,19,23,7.90
2004,11,22,19,24,7.90
2004,11,22,19,25,7.90
2004,11,22,19,26,7.90
2004,11,22,19,27,7.80
2004,11,22,19,28,7.80
2004,11,22,19,29,7.80
2004,11,22,19,30,7.80
2004,11,22,19,31,7.80
2004,11,22,19,32,7.80
2004,11,22,19,33,7.80
2004,11,22,19,34,7.90
2004,11,22,19,35,7.90
2004,11,22,19,36,7.90
2004,11,22,19,37,7.90
2004,11,22,19,38,7.80
2004,11,22,19,39,7.80
2004,11,22,19,40,7.80
2004,11,22,19,41,7.80
2004,11,22,19,42,7.80
2004,11,22,19,43,7.80
2004,11,22,19,44,7.80
2004,11,22,19,45,7.80
2004,11,22,19,46,7.80
2004,11,22,19,47,7.80
2004,11,22,19,48,7.80
2004,11,22,19,49,7.80
2004,11,22,19,50,7.80
2004,11,22,19,51,7.80
2004,11,22,19,52,7.80
2004,11,22,19,53,7.80
2004,11,22,19,54,7.80
2004,11,22,19,55,7.80
2004,11,22,19,56,7.80
2004,11,22,19,57,7.80
2004,11,22,19,58,7.80
2004,11,22,19,59,7.80
2004,11,22,20,00,7.80
2004,11,22,20,01,7.80
2004,11,22,20,02,7.80
2004,11,22,20,03,7.80
2004,11,22,20,04,7.80
2004,11,22,20,05,7.80
2004,11,22,20,06,7.70
2004,11,22,20,07,7.70
2004,11,22,20,08,7.70
2004,11,22,20,09,7.70
2004,11,22,20,10,7.70
2004,11,22,20,11,7.70
2004,11,22,20,12,7.70
2004,11,22,20,13,7.70
2004,11,22,20,14,7.70
2004,11,22,20,15,7.70
2004,11,22,20,16,7.70
2004,11,22,20,17,7.70
2004,11,22,20,18,7.70
2004,11,22,20,19,7.70
2004,11,22,20,20,7.70
2004,11,22,20,21,7.80
2004,11,22,20,22,7.80
2004,11,22,20,23,7.80
2004,11,22,20,24,7.80
2004,11,22,20,25,7.80
2004,11,22,20,26,7.80
2004,11,22,20,27,7.80
2004,11,22,20,28,7.80
2004,11,22,20,29,7.80
2004,11,22,20,30,7.80
2004,11,22,20,31,7.80
2004,11,22,20,32,7.80
2004,11,22,20,33,7.80
2004,11,22,20,34,7.80
2004,11,22,20,35,7.80
2004,11,22,20,36,7.80
2004,11,22,20,37,7.80
2004,11,22,20,38,7.80
2004,11,22,20,39,7.80
2004,11,22,20,40,7.80
2004,11,22,20,41,7.80
2004,11,22,20,42,7.80
2004,11,22,20,43,7.80
2004,11,22,20,44,7.80
2004,11,22,20,45,7.80
2004,11,22,20,46,7.80
2004,11,22,20,47,7.80
2004,11,22,20,48,7.80
2004,11,22,20,49,7.80
2004,11,22,20,50,7.80
2004,11,22,20,51,7.80
2004,11,22,20,52,7.80
2004,11,22,20,53,7.80
2004,11,22,20,54,7.80
2004,11,22,20,55,7.80
2004,11,22,20,56,7.80
2004,11,22,20,57,7.80
2004,11,22,20,58,7.80
2004,11,22,20,59,7.80
2004,11,22,21,00,7.80
2004,11,22,21,01,7.70
2004,11,22,21,02,7.70
2004,11,22,21,03,7.70
2004,11,22,21,04,7.70
2004,11,22,21,05,7.70
2004,11,22,21,06,7.70
2004,11,22,21,07,7.70
2004,11,22,21,08,7.70
2004,11,22,21,09,7.70
2004,11,22,21,10,7.70
2004,11,22,21,11,7.70
2004,11,22,21,12,7.70
2004,11,22,21,13,7.70
2004,11,22,21,14,7.70
2004,11,22,21,15,7.70
2004,11,22,21,16,7.70
2004,11,22,21,17,7.70
2004,11,22,21,18,7.70
2004,11,22,21,19,7.70
2004,11,22,21,20,7.70
2004,11,22,21,21,7.70
2004,11,22,21,22,7.70
2004,11,22,21,23,7.70
2004,11,22,21,24,7.70
2004,11,22,21,25,7.80
2004,11,22,21,26,7.80
2004,11,22,21,27,7.70
2004,11,22,21,28,7.70
2004,11,22,21,29,7.80
2004,11,22,21,30,7.80
2004,11,22,21,31,7.80
2004,11,22,21,32,7.80
2004,11,22,21,33,7.70
2004,11,22,21,34,7.70
2004,11,22,21,35,7.70
2004,11,22,21,36,7.80
2004,11,22,21,37,7.70
2004,11,22,21,38,7.70
2004,11,22,21,39,7.70
2004,11,22,21,40,7.80
2004,11,22,21,41,7.80
2004,11,22,21,42,7.80
2004,11,22,21,43,7.80
2004,11,22,21,44,7.80
2004,11,22,21,45,7.80
2004,11,22,21,46,7.80
2004,11,22,21,47,7.80
2004,11,22,21,48,7.80
2004,11,22,21,49,7.80
2004,11,22,21,50,7.80
2004,11,22,21,51,7.80
2004,11,22,21,52,7.80
2004,11,22,21,53,7.80
2004,11,22,21,54,7.80
2004,11,22,21,55,7.70
2004,11,22,21,56,7.70
2004,11,22,21,57,7.80
2004,11,22,21,58,7.80
2004,11,22,21,59,7.80
2004,11,22,22,00,7.80
2004,11,22,22,01,7.80
2004,11,22,22,02,7.80
2004,11,22,22,03,7.80
2004,11,22,22,04,7.80
2004,11,22,22,05,7.80
2004,11,22,22,06,7.80
2004,11,22,22,07,7.80
2004,11,22,22,08,7.80
2004,11,22,22,09,7.80
2004,11,22,22,10,7.80
2004,11,22,22,11,7.80
2004,11,22,22,12,7.80
2004,11,22,22,13,7.80
2004,11,22,22,14,7.80
2004,11,22,22,15,7.80
2004,11,22,22,16,7.80
2004,11,22,22,17,7.80
2004,11,22,22,18,7.80
2004,11,22,22,19,7.80
2004,11,22,22,20,7.80
2004,11,22,22,21,7.80
2004,11,22,22,22,7.80
2004,11,22,22,23,7.80
2004,11,22,22,24,7.80
2004,11,22,22,25,7.80
2004,11,22,22,26,7.80
2004,11,22,22,27,7.80
2004,11,22,22,28,7.80
2004,11,22,22,29,7.80
2004,11,22,22,30,7.80
2004,11,22,22,31,7.80
2004,11,22,22,32,7.80
2004,11,22,22,33,7.80
2004,11,22,22,34,7.80
2004,11,22,22,35,7.80
2004,11,22,22,36,7.80
2004,11,22,22,37,7.80
2004,11,22,22,38,7.80
2004,11,22,22,39,7.80
2004,11,22,22,40,7.80
2004,11,22,22,41,7.80
2004,11,22,22,42,7.80
2004,11,22,22,43,7.80
2004,11,22,22,44,7.80
2004,11,22,22,45,7.80
2004,11,22,22,46,7.80
2004,11,22,22,47,7.80
2004,11,22,22,48,7.80
2004,11,22,22,49,7.80
2004,11,22,22,50,7.80
2004,11,22,22,51,7.80
2004,11,22,22,52,7.80
2004,11,22,22,53,7.80
2004,11,22,22,54,7.80
2004,11,22,22,55,7.80
2004,11,22,22,56,7.80
2004,11,22,22,57,7.80
2004,11,22,22,58,7.80
2004,11,22,22,59,7.80
2004,11,22,23,00,7.80
2004,11,22,23,01,7.80
2004,11,22,23,02,7.80
2004,11,22,23,03,7.80
2004,11,22,23,04,7.80
2004,11,22,23,05,7.80
2004,11,22,23,06,7.80
2004,11,22,23,07,7.80
2004,11,22,23,08,7.80
2004,11,22,23,09,7.80
2004,11,22,23,10,7.80
2004,11,22,23,11,7.80
2004,11,22,23,12,7.80
2004,11,22,23,13,7.80
2004,11,22,23,14,7.80
2004,11,22,23,15,7.80
2004,11,22,23,16,7.80
2004,11,22,23,17,7.80
2004,11,22,23,18,7.80
2004,11,22,23,19,7.80
2004,11,22,23,20,7.80
2004,11,22,23,21,7.80
2004,11,22,23,22,7.90
2004,11,22,23,23,7.80
2004,11,22,23,24,7.80
2004,11,22,23,25,7.80
2004,11,22,23,26,7.80
2004,11,22,23,27,7.80
2004,11,22,23,28,7.80
2004,11,22,23,29,7.80
2004,11,22,23,30,7.80
2004,11,22,23,31,7.80
2004,11,22,23,32,7.80
2004,11,22,23,33,7.70
2004,11,22,23,34,7.70
2004,11,22,23,35,7.70
2004,11,22,23,36,7.70
2004,11,22,23,37,7.80
2004,11,22,23,38,7.80
2004,11,22,23,39,7.80
2004,11,22,23,40,7.80
2004,11,22,23,41,7.80
2004,11,22,23,42,7.80
2004,11,22,23,43,7.80
2004,11,22,23,44,7.70
2004,11,22,23,45,7.70
2004,11,22,23,46,7.70
2004,11,22,23,47,7.70
2004,11,22,23,48,7.70
2004,11,22,23,49,7.70
2004,11,22,23,50,7.80
2004,11,22,23,51,7.80
2004,11,22,23,52,7.70
2004,11,22,23,53,7.70
2004,11,22,23,54,7.80
2004,11,22,23,55,7.80
2004,11,22,23,56,7.80
2004,11,22,23,57,7.80
2004,11,22,23,58,7.80
2004,11,22,23,59,7.80
